Station Name: ARKLOW (Ballyrichard House)
Station Height: 70 M 
Latitude:52.834  ,Longitude: -6.131


date: -   09 to 09 utc
rain: -   Precipitation Amount (mm)
maxt: -   Maximum Temperature (C)
mint: -   Minimum Temperature (C)
gmin: -   09utc Grass Minimum Temperature (C)
soil: -   10cm Soil Temperature (C)
ind:  -	  Indicator

date,ind,rain,ind,maxt,ind,mint,gmin,soil
01-jul-1984,0,0.000, , , , , , 
02-jul-1984,0,0.000, , , , , , 
03-jul-1984,0,0.000, , , , , , 
04-jul-1984,0,0.000, , , , , , 
05-jul-1984,0,0.000, , , , , , 
06-jul-1984,0,0.000, , , , , , 
07-jul-1984,0,0.000, , , , , , 
08-jul-1984,0,1.600, , , , , , 
09-jul-1984,0,2.600, , , , , , 
10-jul-1984,0,2.100, , , , , , 
11-jul-1984,0,0.100, , , , , , 
12-jul-1984,0,3.500, , , , , , 
13-jul-1984,0,0.100, , , , , , 
14-jul-1984,0,0.000, , , , , , 
15-jul-1984,0,0.000, , , , , , 
16-jul-1984,0,0.400, , , , , , 
17-jul-1984,4,0.000, , , , , , 
18-jul-1984,0,0.000, , , , , , 
19-jul-1984,0,0.000, , , , , , 
20-jul-1984,0,0.000, , , , , , 
21-jul-1984,0,0.000, , , , , , 
22-jul-1984,0,0.000, , , , , , 
23-jul-1984,0,0.000, , , , , , 
24-jul-1984,0,0.000, , , , , , 
25-jul-1984,0,0.000, , , , , , 
26-jul-1984,0,0.000, , , , , , 
27-jul-1984,0,0.000, , , , , , 
28-jul-1984,0,0.000, , , , , , 
29-jul-1984,0,0.000, , , , , , 
30-jul-1984,0,3.000, , , , , , 
31-jul-1984,0,0.000, , , , , , 
01-aug-1984,0,31.500,0,20.0,0,11.0,7.0,15.5
02-aug-1984,0,1.600,0,18.0,0,12.5,5.3,15.3
03-aug-1984,0,0.000,0,19.5,0,10.5,6.3,16.0
04-aug-1984,0,0.000,0,18.2,0,12.5,8.1,16.0
05-aug-1984,0,1.000,0,17.5,0,9.0,8.0,17.0
06-aug-1984,4,0.000,0,23.0,0,11.5,9.0,16.5
07-aug-1984,0,0.000,0,19.4,0,11.0,8.2,16.0
08-aug-1984,0,1.100,0,17.0,0,11.1,8.1,16.0
09-aug-1984,0,0.400,0,17.9,0,13.9,11.0,16.9
10-aug-1984,0,0.000,0,19.6,0,12.9,10.6,16.0
11-aug-1984,0,0.000,0,18.2,0,13.9,10.2,17.5
12-aug-1984,4,0.000,0,18.0,0,14.2,14.0,18.9
13-aug-1984,0,0.000,0,19.1,0,11.6,7.6,17.5
14-aug-1984,0,0.000,0,19.0,0,11.6,10.2,17.4
15-aug-1984,0,0.000,0,19.4,0,13.0,11.0,17.0
16-aug-1984,0,0.000,0,19.5,0,13.0,10.5,18.5
17-aug-1984,0,0.000,0,20.5,0,13.0,9.0,16.5
18-aug-1984,4,0.000,0,21.1,0,15.6,14.5,18.0
19-aug-1984,4,0.000,0,22.0,0,13.5,10.9,17.2
20-aug-1984,0,0.000,0,23.9,0,17.2,13.1,17.6
21-aug-1984,0,0.100,0,23.1,0,18.0,14.4,18.6
22-aug-1984,4,0.000,0,22.0,0,15.2,10.6,18.0
23-aug-1984,0,9.700,0,21.0,0,13.6,10.4,17.5
24-aug-1984,0,0.100,0,21.1,0,16.6,15.4,18.1
25-aug-1984,4,0.000,0,21.5,0,15.1,13.0,18.6
26-aug-1984,0,0.900,0,21.0,0,15.2,13.5,19.0
27-aug-1984,4,0.000,0,20.4,0,14.9,11.8,17.0
28-aug-1984,0,0.500,0,23.9,0,11.5,8.0,16.0
29-aug-1984,0,0.000,0,20.7,0,9.6,5.5,15.6
30-aug-1984,0,0.000,0,25.7,0,13.5,10.4,16.9
31-aug-1984,0,1.200,0,23.6,0,17.2,15.5,19.0
01-sep-1984,0,0.000,0,22.4,0,15.6,13.1,17.1
02-sep-1984,4,0.000,0,20.0,0,15.1,10.6,17.1
03-sep-1984,0,9.400,0,22.1,0,15.9,13.1,17.7
04-sep-1984,0,0.000,0,15.7,0,10.5,8.4,14.1
05-sep-1984,0,0.000,0,16.6,0,9.9,5.6,13.0
06-sep-1984,0,0.000,0,15.3,0,10.0,5.6,14.9
07-sep-1984,0,0.000,0,18.6,0,11.9,10.8,15.0
08-sep-1984,0,0.400,0,15.6,0,10.1,6.1,14.9
09-sep-1984,0,2.600,0,19.1,0,12.0,10.4,14.1
10-sep-1984,4,0.000,0,18.8,0,7.9,3.9,12.9
11-sep-1984,0,0.000,0,20.9,0,11.5,10.5,15.0
12-sep-1984,0,0.500,0,23.5,0,14.6,12.6,16.5
13-sep-1984,0,5.800,0,18.4,0,14.5,13.0,16.9
14-sep-1984,0,0.000,0,20.4,0,13.0,11.0,14.9
15-sep-1984,0,0.000,0,17.5,0,10.4,6.3,13.1
16-sep-1984,0,1.900,0,17.2,0,10.6,6.9,15.1
17-sep-1984,0,2.100,0,19.3,0,9.0,7.9,13.5
18-sep-1984,0,0.000,0,16.2,0,8.4,4.4,13.5
19-sep-1984,0,2.300,0,16.5,0,8.4,5.2,12.6
20-sep-1984,0,2.200,0,16.1,0,7.7,4.9,12.0
21-sep-1984,0,1.200,0,16.3,0,6.5,4.8,11.3
22-sep-1984,0,0.600,0,17.4,0,7.8,4.9,11.5
23-sep-1984,0,0.000,0,15.4,0,7.9,4.4,11.0
24-sep-1984,0,0.000,0,14.7,0,7.1,4.5,10.4
25-sep-1984,0,0.800,0,16.3,0,6.1,2.9,11.1
26-sep-1984,0,12.000,0,16.2,0,8.9,7.4,12.5
27-sep-1984,0,12.500,0,18.8,0,12.0,11.0,14.0
28-sep-1984,0,0.100,0,15.8,0,10.7,10.2,13.5
29-sep-1984,0,12.200,0,16.5,0,9.3,6.0,12.5
30-sep-1984,0,3.200,0,16.4,0,6.1,2.9,11.0
01-oct-1984,0,4.500,0,12.1,0,5.4,1.8,10.9
02-oct-1984,0,0.700,0,13.5,0,3.9,0.3,10.0
03-oct-1984,0,1.100,0,12.9,0,4.0,-0.2,10.0
04-oct-1984,4,0.000,0,13.8,0,5.2,0.4,10.1
05-oct-1984,0,0.500,0,14.8,0,7.4,4.5,10.0
06-oct-1984,4,0.000,0,15.5,0,4.1,-0.1,9.0
07-oct-1984,0,0.100,0,18.5,0,7.8,3.9,10.9
08-oct-1984,0,1.600,0,19.7,0,11.1,10.0,13.0
09-oct-1984,0,0.100,0,15.9,0,9.4,7.9,12.4
10-oct-1984,4,0.000,0,17.3,0,5.8,1.0,10.0
11-oct-1984,4,0.000,0,16.6,0,9.9,6.5,11.5
12-oct-1984,4,0.000,0,15.2,0,9.5,6.2,12.1
13-oct-1984,0,0.000,0,16.2,0,12.9,11.5,13.0
14-oct-1984,0,0.000,0,18.8,0,13.4,12.1,13.6
15-oct-1984,0,0.000,0,15.7,0,11.0,7.5,13.0
16-oct-1984,4,0.000,0,15.4,0,10.4,6.5,12.9
17-oct-1984,0,11.200,0,15.1,0,9.4,5.6,11.9
18-oct-1984,0,8.100,0,14.1,0,8.2,5.6,10.9
19-oct-1984,0,0.600,0,13.7,0,8.2,5.1,10.9
20-oct-1984,4,0.000,0,12.4,0,6.0,2.5,9.1
21-oct-1984,0,10.800,0,14.4,0,4.0,-0.1,9.1
22-oct-1984,0,8.100,0,16.9,0,9.2,9.0,12.6
23-oct-1984,0,11.000,0,13.9,0,4.1,1.1,10.0
24-oct-1984,0,7.400,0,13.8,0,8.5,6.0,11.9
25-oct-1984,0,0.100,0,10.8,0,7.9,5.0,10.9
26-oct-1984,0,3.400,0,11.5,0,2.2,-1.0,8.4
27-oct-1984,0,11.200,0,12.6,0,3.5,-0.9,8.9
28-oct-1984,0,2.200,0,14.9,0,9.5,7.8,10.9
29-oct-1984,0,3.800,0,14.9,0,10.0,7.2,12.1
30-oct-1984,0,3.100,0,13.7,0,10.3,7.9,11.2
31-oct-1984,0,0.900,0,13.6,0,6.5,2.4,9.9
01-nov-1984,0,8.800,0,14.8,0,6.5,2.5,11.2
02-nov-1984,0,0.100,0,12.0,0,6.6,3.9,10.1
03-nov-1984,0,0.000,0,10.7,0,3.7,-2.1,8.3
04-nov-1984,0,3.200,0,10.6,0,3.4,-2.5,8.2
05-nov-1984,0,14.700,0,9.1,0,4.7,1.7,8.1
06-nov-1984,0,0.400,0,9.2,0,5.1,2.9,7.9
07-nov-1984,0,16.600,0,11.7,0,5.3,3.9,8.9
08-nov-1984,0,11.900,0,11.8,0,8.8,5.0,10.0
09-nov-1984,0,0.100,0,11.7,0,7.4,2.5,8.9
10-nov-1984,4,0.000,0,13.7,0,7.7,2.0,9.1
11-nov-1984,0,29.600,0,11.7,0,8.1,3.5,10.1
12-nov-1984,0,0.300,0,10.2,0,7.1,5.0,9.8
13-nov-1984,0,13.000,0,11.0,0,2.8,-2.2,7.5
14-nov-1984,0,0.100,0,8.0,0,4.4,1.0,8.0
15-nov-1984,0,0.500,0,7.8,0,1.5,-4.0,7.5
16-nov-1984,0,0.300,0,8.8,0,4.5,1.5,6.7
17-nov-1984,0,1.000,0,8.1,0,4.9,1.1,7.2
18-nov-1984,0,1.700,0,7.4,0,6.7,4.8,7.6
19-nov-1984,4,0.000,0,8.2,0,5.0,3.0,7.3
20-nov-1984,0,15.100,0,10.8,0,3.9,-2.0,6.5
21-nov-1984,0,10.700,0,11.9,0,4.5,2.9,7.0
22-nov-1984,0,8.400,0,10.2,0,6.9,3.0,8.0
23-nov-1984,4,0.000,0,10.8,0,5.6,2.6,7.6
24-nov-1984,0,0.000,0,10.2,0,4.4,1.0,6.5
25-nov-1984,4,0.000,0,9.1,0,2.7,-2.6,5.5
26-nov-1984,0,0.300,0,10.8,0,0.7,-5.0,4.5
27-nov-1984,0,15.700,0,10.7,0,4.9,0.9,7.9
28-nov-1984,0,1.900,0,10.2,0,4.8,0.9,7.2
29-nov-1984,0,11.300,0,11.3,0,5.5,2.0,7.6
30-nov-1984,0,5.300,0,11.5,0,9.7,8.9,9.1
01-dec-1984,0,0.200,0,11.5,0,2.5,-2.0,6.9
02-dec-1984,0,11.500,0,9.6,0,2.0,-3.0,5.0
03-dec-1984,0,0.100,0,12.0,0,2.8,-2.6,7.2
04-dec-1984,0,13.500,0,10.8,0,5.4,-0.9,6.8
05-dec-1984,4,0.000,0,11.2,0,6.2,4.5,7.5
06-dec-1984,4,0.000,0,10.5,0,1.5,0.5,5.0
07-dec-1984,4,0.000,0,11.0,0,3.0,-2.5,7.0
08-dec-1984,0,0.500,0,11.5,0,7.0,3.0,7.5
09-dec-1984,4,0.000,0,8.4,0,2.5,0.2,5.5
10-dec-1984,4,0.000,0,9.5,0,3.9,-1.9,5.4
11-dec-1984,4,0.000,0,8.6,0,3.4,-3.0,5.6
12-dec-1984,0,1.200,0,8.9,0,6.9,2.6,7.0
13-dec-1984,0,14.800,0,9.2,0,6.4,0.6,7.0
14-dec-1984,0,6.600,0,3.9,0,3.4,2.0,6.4
15-dec-1984,0,1.300,0,5.1,0,2.2,1.1,5.2
16-dec-1984,0,6.100,0,7.9,0,2.7,-0.6,5.1
17-dec-1984,0,0.100,0,5.2,0,3.5,-2.3,6.0
18-dec-1984,0,2.800,0,8.7,1,-1.1,-6.1,3.5
19-dec-1984,0,0.200,0,9.8,0,0.7,-1.0,6.1
20-dec-1984,0,0.100,0,10.4,0,7.4,1.6,6.8
21-dec-1984,0,2.200,0,10.1,0,0.0,-4.9,4.0
22-dec-1984,0,2.000,0,11.2,0,2.0,-1.2,7.1
23-dec-1984,0,3.900,0,11.6,0,9.0,5.8,8.5
24-dec-1984,0,4.600,0,8.5,0,1.3,-2.9,6.0
25-dec-1984,0,0.400,0,8.4,0,1.5,-3.1,6.5
26-dec-1984,0,0.600,0,5.6,1,-2.7,-7.2,3.5
27-dec-1984,4,0.000,0,7.2,0,1.0,-4.5,4.0
28-dec-1984,0,8.300,0,9.1,0,4.1,0.6,5.3
29-dec-1984,0,3.700,0,10.6,0,7.0,6.0,7.1
30-dec-1984,0,0.100,0,10.8,0,8.4,4.3,7.8
31-dec-1984,4,0.000,0,8.0,0,7.2,4.9,7.5
01-jan-1985,4,0.000,0,6.8,0,2.4,-1.0,4.1
02-jan-1985,4,0.000,0,6.9,0,1.8,-2.1,3.6
03-jan-1985,0,0.000,0,5.5,0,2.0,-3.0,3.1
04-jan-1985,0,0.200,0,7.3,0,2.5,1.0,3.6
05-jan-1985,0,0.000,0,4.6,0,3.1,-2.3,4.1
06-jan-1985,0,3.000,0,6.5,0,0.9,-2.6,3.2
07-jan-1985,4,0.000,0,5.0,0,1.9,-1.4,3.6
08-jan-1985,0,0.300,0,5.5,0,0.2,-8.7,3.0
09-jan-1985,0,0.200,0,5.1,0,0.0,-5.0,2.3
10-jan-1985,0,0.400,0,6.0,0,2.3,-1.7,3.2
11-jan-1985,0,0.000,0,5.0,0,2.5,-0.2,3.5
12-jan-1985,0,0.000,0,4.8,0,2.9,-1.9,3.2
13-jan-1985,0,3.000,0,5.3,0,1.5,-4.4,3.0
14-jan-1985,4,0.000,0,5.3,0,0.1,-2.1,2.1
15-jan-1985,0,2.400,0,4.1,1,-0.2,-2.6,2.9
16-jan-1985,0,0.900,0,0.9,1,-0.5,-4.9,2.0
17-jan-1985,0,12.700,0,0.4,1,-3.1,-3.5,2.0
18-jan-1985,0,7.700,0,3.4,1,-3.1,-3.1,2.0
19-jan-1985,0,1.000,0,4.7,1,-0.1,-0.1,1.9
20-jan-1985,0,15.100,0,7.0,0,2.1,0.5,3.0
21-jan-1985,0,0.300,0,8.5,0,4.0,3.3,4.4
22-jan-1985,4,0.000,0,4.9,1,-0.9,-5.5,2.2
23-jan-1985,0,1.800,0,4.1,1,-1.9,-6.8,1.8
24-jan-1985,0,1.500,0,8.4,1,-1.4,-5.5,1.6
25-jan-1985,0,1.300,0,7.4,0,2.0,-1.6,2.6
26-jan-1985,0,7.400,0,5.7,0,1.8,0.9,3.6
27-jan-1985,0,12.000,0,8.1,0,0.7,-3.0,3.6
28-jan-1985,0,1.000,0,10.7,0,3.9,0.5,3.9
29-jan-1985,0,6.100,0,10.2,0,4.7,2.2,6.5
30-jan-1985,0,2.000,0,10.6,0,3.1,-0.9,5.6
31-jan-1985,0,0.300,0,12.1,0,7.2,4.2,5.6
01-feb-1985,4,0.000,0,10.7,0,7.5,5.9,6.9
02-feb-1985,0,0.100,0,11.2,0,6.9,3.1,6.8
03-feb-1985,0,0.100,0,10.4,0,7.3,4.4,7.2
04-feb-1985,4,0.000,0,8.0,0,6.9,5.9,7.9
05-feb-1985,0,3.700,0,7.0,0,5.7,2.4,5.2
06-feb-1985,0,28.300,0,8.2,0,6.0,3.0,6.5
07-feb-1985,0,20.900,0,7.5,0,6.9,6.6,7.1
08-feb-1985,0,17.700,0,7.4,0,4.4,3.9,5.9
09-feb-1985,0,0.700,0,6.9,0,0.9,0.1,4.1
10-feb-1985,0,0.000,0,0.7,1,-1.1,-2.1,2.5
11-feb-1985,0,0.000,0,0.8,1,-1.9,-2.8,1.9
12-feb-1985,0,0.000,0,0.7,1,-1.9,-2.9,1.5
13-feb-1985,0,0.000,0,1.3,1,-1.7,-3.0,1.5
14-feb-1985,0,0.000,0,3.2,1,-1.0,-4.1,1.6
15-feb-1985,0,0.000,0,2.1,1,-1.0,-2.1,1.6
16-feb-1985,4,0.000,0,4.5,0,0.6,-1.2,1.4
17-feb-1985,4,0.000,0,5.1,0,0.9,-3.6,1.5
18-feb-1985,0,0.000,0,5.7,1,-0.5,-5.5,1.9
19-feb-1985,0,1.400,0,6.8,0,1.4,0.9,4.0
20-feb-1985,4,0.000,0,8.2,0,5.1,3.6,4.8
21-feb-1985,4,0.000,0,8.5,0,3.9,0.1,4.5
22-feb-1985,4,0.000,0,9.2,0,2.4,-2.6,4.0
23-feb-1985,0,0.000,0,10.9,0,6.2,5.4,6.1
24-feb-1985,0,0.000,0,8.9,0,5.9,3.5,6.0
25-feb-1985,0,0.600,0,7.5,0,4.9,-1.4,5.2
26-feb-1985,0,0.300,0,7.7,0,5.0,0.4,6.0
27-feb-1985,0,0.500,0,9.4,0,4.4,4.4,6.4
28-feb-1985,0,2.000,0,9.4,0,5.8,0.6,5.2
01-mar-1985,0,1.300,0,7.4,0,5.6,4.1,6.3
02-mar-1985,0,8.200,0,9.2,0,3.9,0.7,5.7
03-mar-1985,0,4.100,0,8.6,0,3.9,-0.1,6.3
04-mar-1985,0,0.500,0,10.2,0,3.7,2.4,5.5
05-mar-1985,0,1.700,0,10.3,0,0.2,-4.9,3.8
06-mar-1985,0,2.600,0,9.2,0,5.6,2.9,6.6
07-mar-1985,0,0.000,0,11.0,0,4.0,-0.2,5.6
08-mar-1985,0,0.000,0,11.3,0,2.1,-2.5,5.3
09-mar-1985,0,1.000,0,12.7,0,4.1,-2.0,8.4
10-mar-1985,0,0.800,0,10.2,0,6.3,3.0,7.5
11-mar-1985,0,0.000,0,10.2,0,2.5,-2.0,5.0
12-mar-1985,0,0.500,0,11.0,0,2.6,-3.6,4.9
13-mar-1985,4,0.000,0,10.2,0,5.5,2.2,7.0
14-mar-1985,0,0.000,0,9.8,0,0.3,-4.8,4.5
15-mar-1985,0,1.200,0,7.5,0,0.9,-3.6,4.6
16-mar-1985,0,0.600,0,6.9,1,-0.4,-4.0,3.2
17-mar-1985,0,0.000,0,6.8,0,0.1,-5.0,3.4
18-mar-1985,0,4.100,0,6.4,0,1.7,-4.1,4.2
19-mar-1985,0,0.000,0,6.0,0,1.8,0.0,4.8
20-mar-1985,0,8.800,0,4.9,0,1.4,-2.2,4.9
21-mar-1985,0,5.700,0,4.0,0,1.5,0.6,5.0
22-mar-1985,0,0.500,0,6.3,0,2.0,0.6,4.2
23-mar-1985,0,0.000,0,9.3,0,2.9,0.2,5.0
24-mar-1985,4,0.000,0,7.9,0,1.2,-3.1,4.9
25-mar-1985,0,0.000,0,7.9,1,-0.5,-6.0,3.7
26-mar-1985,0,0.000,0,8.7,1,-0.6,-5.0,4.5
27-mar-1985,0,0.000,0,7.6,0,3.9,-1.0,5.0
28-mar-1985,0,8.700,0,8.3,0,0.8,-4.6,4.7
29-mar-1985,0,4.600,0,12.4,0,4.6,2.1,6.1
30-mar-1985,0,0.300,0,13.6,0,7.9,6.1,8.4
31-mar-1985,0,10.800,0,13.8,0,5.2,0.5,6.9
01-apr-1985,0,4.400,0,11.5,0,6.5,5.1,8.8
02-apr-1985,0,2.700,0,12.4,0,7.4,4.0,8.1
03-apr-1985,0,2.400,0,13.4,0,7.5,6.7,9.1
04-apr-1985,0,9.300,0,13.4,0,7.6,5.2,8.5
05-apr-1985,0,2.400,0,11.4,0,7.8,6.4,8.9
06-apr-1985,0,6.100,0,13.9,0,6.2,2.5,8.4
07-apr-1985,0,4.500,0,9.9,0,5.0,0.4,8.0
08-apr-1985,0,0.200,0,12.9,0,6.6,4.5,8.4
09-apr-1985,0,3.400,0,13.0,0,2.7,-2.6,7.1
10-apr-1985,0,16.000,0,13.0,0,4.4,0.2,8.5
11-apr-1985,0,0.600,0,10.3,0,5.6,3.6,8.5
12-apr-1985,0,3.300,0,12.5,0,1.7,-3.1,7.1
13-apr-1985,0,3.900,0,11.0,0,3.1,-0.5,8.0
14-apr-1985,0,1.100,0,15.2,0,5.0,0.5,6.5
15-apr-1985,0,0.000,0,17.9,0,5.4,0.5,11.0
16-apr-1985,0,0.000,0,16.8,0,5.4,2.9,10.0
17-apr-1985,0,0.000,0,14.7,0,6.9,2.9,11.2
18-apr-1985,0,0.000,0,12.9,0,3.9,-0.9,9.0
19-apr-1985,0,0.000,0,15.4,0,6.1,0.9,9.4
20-apr-1985,0,0.900,0,10.8,0,3.2,-1.6,7.4
21-apr-1985,0,0.000,0,9.4,0,4.2,-0.6,7.6
22-apr-1985,0,0.000,0,9.7,0,5.4,1.7,8.2
23-apr-1985,0,0.000,0,9.3,0,6.2,3.0,8.3
24-apr-1985,0,0.000,0,12.4,0,2.5,-3.5,9.0
25-apr-1985,0,0.000,0,12.6,0,5.2,-1.4,10.3
26-apr-1985,0,0.000,0,12.8,0,2.6,-1.8,8.5
27-apr-1985,0,0.000,0,10.6,0,5.5,-1.0,9.0
28-apr-1985,0,1.000,0,10.9,0,0.2,-4.9,7.0
29-apr-1985,0,0.200,0,15.4,0,5.1,3.9,9.7
30-apr-1985,0,0.000,0,15.6,0,8.7,3.7,10.1
01-may-1985,0,1.500,0,11.6,0,3.3,-2.4,8.6
02-may-1985,0,0.000,0,11.5,0,6.3,3.4,10.0
03-may-1985,0,0.000,0,11.4,0,4.1,-2.5,8.1
04-may-1985,0,7.900,0,8.9,0,4.0,1.4,10.0
05-may-1985,0,18.200,0,9.4,0,4.4,0.9,8.1
06-may-1985,0,1.100,0,11.9,0,4.6,1.9,8.9
07-may-1985,0,0.000,0,14.0,0,4.9,-3.1,10.0
08-may-1985,0,0.000,0,13.9,0,7.5,3.5,10.5
09-may-1985,0,5.000,0,12.0,0,4.9,-0.9,8.9
10-may-1985,0,0.000,0,13.0,0,6.2,0.8,8.5
11-may-1985,0,0.000,0,12.9,0,6.2,0.7,10.0
12-may-1985,0,0.000,0,11.4,0,7.1,4.8,9.5
13-may-1985,0,8.700,0,12.2,0,7.8,6.8,11.3
14-may-1985,0,5.100,0,14.5,0,7.9,4.8,10.5
15-may-1985,0,0.000,0,14.8,0,8.8,6.5,12.9
16-may-1985,0,0.000,0,16.0,0,9.0,7.0,13.5
17-may-1985,0,0.000,0,16.6,0,9.4,4.6,13.8
18-may-1985,0,0.000,0,16.3,0,11.2,6.7,13.0
19-may-1985,0,0.500,0,11.4,0,9.5,6.4,12.4
20-may-1985,0,4.100,0,11.1,0,8.5,6.0,12.5
21-may-1985,0,0.100,0,12.4,0,8.4,7.2,10.9
22-may-1985,0,0.200,0,14.0,0,8.5,5.6,11.7
23-may-1985,0,12.500,0,11.5,0,8.1,4.9,11.8
24-may-1985,0,0.900,0,16.1,0,8.8,7.3,11.2
25-may-1985,0,4.200,0,15.5,0,9.2,6.0,12.3
26-may-1985,0,0.300,0,13.7,0,10.6,8.9,12.2
27-may-1985,4,0.000,0,16.2,0,10.9,9.4,12.2
28-may-1985,0,0.000,0,14.5,0,2.9,-0.9,10.3
29-may-1985,0,0.000,0,13.2,0,5.9,0.9,10.9
30-may-1985,0,0.000,0,16.0,0,9.0,4.4,11.5
31-may-1985,0,0.000,0,16.8,0,8.9,3.2,12.0
01-jun-1985,0,0.000,0,17.0,0,9.1,2.9,13.0
02-jun-1985,0,0.000,0,18.7,0,11.5,5.6,13.5
03-jun-1985,0,0.000,0,18.9,0,12.6,7.3,15.4
04-jun-1985,0,0.000,0,19.6,0,13.9,7.5,15.5
05-jun-1985,0,13.900,0,13.0,0,10.9,7.1,14.4
06-jun-1985,4,0.000,0,11.7,0,9.0,6.5,12.4
07-jun-1985,4,0.000,0,15.1,0,5.2,0.9,10.3
08-jun-1985,0,3.100,0,14.0,0,6.9,1.5,12.6
09-jun-1985,0,0.400,0,14.7,0,8.6,4.5,12.1
10-jun-1985,4,0.000,0,16.4,0,6.0,-0.5,12.0
11-jun-1985,0,8.500,0,14.0,0,10.0,6.0,12.8
12-jun-1985,0,0.100,0,15.9,0,7.3,2.7,11.6
13-jun-1985,0,1.500,0,13.1,0,9.9,5.2,12.6
14-jun-1985,0,0.600,0,13.0,0,4.5,-1.4,11.2
15-jun-1985,0,0.000,0,13.9,0,7.0,0.4,11.2
16-jun-1985,0,1.600,0,14.4,0,8.7,2.9,13.0
17-jun-1985,0,4.600,0,14.3,0,8.9,4.1,13.2
18-jun-1985,0,0.000,0,15.2,0,7.4,2.6,12.8
19-jun-1985,4,0.000,0,15.6,0,8.0,1.9,12.7
20-jun-1985,0,22.900,0,15.5,0,9.0,1.4,12.4
21-jun-1985,0,4.300,0,14.6,0,10.5,7.9,14.0
22-jun-1985,0,0.900,0,16.3,0,11.5,8.2,14.8
23-jun-1985,0,0.500,0,16.6,0,8.1,3.8,12.7
24-jun-1985,0,0.500,0,18.1,0,9.7,5.7,13.9
25-jun-1985,0,3.500,0,17.1,0,6.4,-0.5,14.5
26-jun-1985,0,0.700,0,17.5,0,8.2,1.6,13.1
27-jun-1985,4,0.000,0,16.7,0,9.3,2.7,13.5
28-jun-1985,4,0.000,0,18.5,0,9.0,3.0,13.9
29-jun-1985,0,0.000,0,18.5,0,11.0,5.5,15.1
30-jun-1985,0,0.600,0,18.0,0,11.6,6.6,15.0
01-jul-1985,4,0.000,0,18.7,0,10.0,3.4,14.0
02-jul-1985,0,0.000,0,17.3,0,11.5,8.0,15.5
03-jul-1985,0,0.000,0,19.8,0,11.5,10.0,16.5
04-jul-1985,0,0.000,0,21.2,0,13.0,9.4,16.8
05-jul-1985,0,0.100,0,19.8,0,14.4,12.0,17.2
06-jul-1985,0,0.000,0,18.1,0,7.3,2.9,14.4
07-jul-1985,0,0.000,0,18.4,0,9.1,4.2,14.4
08-jul-1985,0,0.000,0,22.5,0,9.1,4.0,15.8
09-jul-1985,0,0.000,0,19.4,0,9.2,4.1,17.1
10-jul-1985,0,0.300,0,20.5,0,10.8,9.0,16.3
11-jul-1985,0,0.700,0,19.5,0,9.8,9.0,16.2
12-jul-1985,0,1.700,0,19.1,0,14.8,13.4,16.2
13-jul-1985,0,9.500,0,15.1,0,13.8,11.4,16.4
14-jul-1985,0,0.000,0,18.5,0,12.5,9.9,15.5
15-jul-1985,0,1.700,0,15.7,0,8.4,4.0,14.5
16-jul-1985,0,0.400,0,18.9,0,9.3,3.9,14.4
17-jul-1985,0,3.300,0,19.0,0,11.4,8.4,15.0
18-jul-1985,0,0.100,0,18.4,0,9.4,6.1,13.9
19-jul-1985,0,0.100,0,18.8,0,10.2,6.9,14.0
20-jul-1985,0,1.400,0,18.3,0,8.2,4.9,13.4
21-jul-1985,0,2.000,0,18.0,0,7.9,2.5,13.8
22-jul-1985,4,0.000,0,20.8,0,12.2,10.2,15.4
23-jul-1985,0,0.000,0,23.0,0,9.1,3.6,14.0
24-jul-1985,0,0.000,0,20.7,0,14.9,11.0,16.1
25-jul-1985,0,5.400,0,19.8,0,13.6,9.4,16.9
26-jul-1985,0,1.900,0,22.9,0,15.5,12.6,16.9
27-jul-1985,0,2.400,0,18.7,0,10.5,7.0,15.6
28-jul-1985,0,4.200,0,15.1,0,10.7,8.1,15.0
29-jul-1985,0,0.200,0,18.5,0,11.9,9.1,15.0
30-jul-1985,0,0.000,0,18.5,0,11.9,9.1,16.0
31-jul-1985,0,0.000,0,17.0,0,10.2,4.1,15.0
01-aug-1985,0,7.600,0,17.1,0,8.8,3.1,14.0
02-aug-1985,0,0.100,0,19.7,0,11.6,9.5,15.0
03-aug-1985,0,6.100,0,18.0,0,10.5,6.9,13.9
04-aug-1985,0,12.000,0,17.6,0,9.9,7.3,14.0
05-aug-1985,0,3.000,0,17.6,0,11.0,7.0,14.0
06-aug-1985,0,0.100,0,17.9,0,8.3,7.1,13.9
07-aug-1985,0,1.000,0,17.9,0,11.1,8.5,14.9
08-aug-1985,0,4.400,0,14.9,0,7.0,3.0,13.9
09-aug-1985,0,5.400,0,17.8,0,7.3,3.0,13.0
10-aug-1985,0,11.800,0,17.3,0,6.8,2.4,12.3
11-aug-1985,0,11.900,0,15.2,0,10.5,7.9,13.5
12-aug-1985,0,3.800,0,17.5,0,6.9,3.0,12.4
13-aug-1985,0,28.300,0,17.6,0,9.5,7.0,13.1
14-aug-1985,0,1.500,0,15.4,0,12.5,11.1,14.4
15-aug-1985,0,11.400,0,14.9,0,10.5,7.4,13.5
16-aug-1985,4,0.000,0,19.7,0,11.8,9.9,14.0
17-aug-1985,0,5.600,0,17.3,0,9.5,4.5,13.6
18-aug-1985,0,1.100,0,17.4,0,13.2,12.2,15.2
19-aug-1985,0,11.600,0,20.3,0,11.1,8.1,14.7
20-aug-1985,0,0.200,0,19.6,0,11.4,8.0,15.6
21-aug-1985,4,0.000,0,18.8,0,10.8,8.0,14.6
22-aug-1985,4,0.000,0,17.5,0,8.5,3.9,14.5
23-aug-1985,0,20.000,0,14.3,0,8.6,4.9,14.0
24-aug-1985,0,5.400,0,17.0,0,9.6,4.9,13.4
25-aug-1985,0,0.400,0,17.5,0,8.7,4.0,13.1
26-aug-1985,0,2.500,0,15.9,0,7.5,2.3,13.8
27-aug-1985,0,2.500,0,17.2,0,11.4,4.5,14.8
28-aug-1985,0,0.900,0,18.1,0,10.4,7.0,14.1
29-aug-1985,0,1.700,0,16.9,0,12.5,9.5,14.6
30-aug-1985,0,2.200,0,20.3,0,13.5,11.0,14.8
31-aug-1985,0,0.200,0,17.4,0,12.4,10.4,15.0
01-sep-1985,0,9.900,0,17.4,0,10.6,7.5,14.0
02-sep-1985,0,8.600,0,17.6,0,9.9,6.5,14.0
03-sep-1985,0,3.200,0,18.3,0,10.9,7.0,14.0
04-sep-1985,0,4.600,0,13.9,0,7.8,3.6,13.5
05-sep-1985,4,0.000,0,15.7,0,10.0,7.5,13.3
06-sep-1985,0,0.000,0,17.5,0,5.3,0.9,12.5
07-sep-1985,0,0.000,0,17.5,0,8.9,5.0,13.1
08-sep-1985,0,0.000,0,19.8,0,12.3,9.4,14.1
09-sep-1985,0,0.000,0,19.0,0,14.0,10.9,15.2
10-sep-1985,0,0.000,0,19.5,0,13.5,8.5,13.4
11-sep-1985,0,0.000,0,17.0,0,13.1,10.9, 
12-sep-1985,0,0.100,0,18.4,0,11.0,6.2, 
13-sep-1985,0,1.600,0,17.2,0,7.8,3.1, 
14-sep-1985,0,0.300,0,16.4,0,12.0,9.1, 
15-sep-1985,0,0.500,0,18.0,0,8.4,4.4, 
16-sep-1985,0,0.200,0,20.5,0,9.9,5.5, 
17-sep-1985,0,0.000,0,19.4,0,14.6,11.8, 
18-sep-1985,0,3.100,0,16.9,0,14.0,10.5, 
19-sep-1985,0,0.200,0,15.9,0,11.4,8.5, 
20-sep-1985,0,1.600,0,16.1,0,5.9,1.3, 
21-sep-1985,0,5.400,0,18.4,0,11.2,8.9, 
22-sep-1985,4,0.000,0,18.9,0,12.6,9.0, 
23-sep-1985,4,0.000,0,17.6,0,10.8,6.5, 
24-sep-1985,0,1.200,0,15.8,0,10.6,5.9, 
25-sep-1985,0,0.100,0,15.9,0,12.7,8.6, 
26-sep-1985,4,0.000,0,16.8,0,14.3,12.2, 
27-sep-1985,4,0.000,0,19.5,0,13.6,8.0, 
28-sep-1985,0,0.000,0,19.2,0,12.5,7.1, 
29-sep-1985,0,1.200,0,16.0,0,13.4,8.3, 
30-sep-1985,0,0.700,0,17.2,0,14.6,11.4, 
01-oct-1985,0,3.700,0,16.7,0,14.8,11.4, 
02-oct-1985,0,8.500,0,16.6,0,13.4,9.4, 
03-oct-1985,0,6.000,0,16.4,0,11.1,7.3, 
04-oct-1985,0,0.700,0,15.7,0,10.3,7.4, 
05-oct-1985,0,15.400,0,14.8,0,6.7,2.1, 
06-oct-1985,0,0.100,0,14.0,0,10.4,8.1, 
07-oct-1985,0,1.700,0,15.2,0,7.4,2.9, 
08-oct-1985,0,4.000,0,12.5,0,3.4,-2.1, 
09-oct-1985,0,0.200,0,14.2,0,8.6,3.9, 
10-oct-1985,4,0.000,0,17.3,0,9.9,6.3, 
11-oct-1985,4,0.000,0,16.3,0,9.9,5.2, 
12-oct-1985,4,0.000,0,14.7,0,9.3,4.0, 
13-oct-1985,0,0.000,0,15.4,0,11.8,7.3, 
14-oct-1985,4,0.000,0,15.1,0,11.1,6.9, 
15-oct-1985,0,0.000,0,14.5,0,9.6,4.2, 
16-oct-1985,0,0.000,0,14.7,0,8.9,4.0, 
17-oct-1985,4,0.000,0,11.4,0,8.9,3.9, 
18-oct-1985,4,0.000,0,12.4,0,8.2,4.5, 
19-oct-1985,0,0.200,0,12.8,0,8.1,5.6, 
20-oct-1985,4,0.000,0,12.8,0,10.1,6.6, 
21-oct-1985,0,0.000,0,13.6,0,7.7,2.4, 
22-oct-1985,4,0.000,0,12.4,0,8.9,3.1, 
23-oct-1985,0,0.000,0,12.2,0,8.6,2.4, 
24-oct-1985,0,0.000,0,12.2,0,8.9,3.1, 
25-oct-1985,0,0.000,0,12.7,0,9.3,4.7, 
26-oct-1985,0,0.000,0,12.8,0,9.1,1.6, 
27-oct-1985,0,0.000,0,12.9,0,9.2,5.6, 
28-oct-1985,0,0.000,0,13.0,0,9.0,2.9, 
29-oct-1985,0,0.000,0,12.8,0,8.1,2.1, 
30-oct-1985,0,0.100,0,11.9,0,8.3,2.9, 
31-oct-1985,0,2.600,0,9.8,0,7.2,3.1, 
01-nov-1985,0,0.000,0,11.3,0,5.9,0.8, 
02-nov-1985,0,0.000,0,8.2,0,2.2,-4.1, 
03-nov-1985,4,0.000,0,12.2,0,0.9,-6.1, 
04-nov-1985,0,14.600,0,13.0,0,4.3,-1.9, 
05-nov-1985,0,0.100,0,9.1,0,4.9,-1.0, 
06-nov-1985,0,0.700,0,10.4,0,0.5,-6.4, 
07-nov-1985,0,17.000,0,12.7,0,5.7,-1.2, 
08-nov-1985,0,19.500,0,13.4,0,8.4,4.4, 
09-nov-1985,0,0.100,0,11.4,0,4.5,-1.4, 
10-nov-1985,0,0.100,0,6.8,0,0.7,-5.2, 
11-nov-1985,0,0.000,0,8.2,0,1.1,-5.4, 
12-nov-1985,0,0.000,0,6.9,0,1.4,-4.6, 
13-nov-1985,0,4.700,0,9.2,0,1.3,-5.4, 
14-nov-1985,0,1.200,0,8.5,0,4.2,-3.2, 
15-nov-1985,0,7.700,0,9.2,0,0.2,-6.1, 
16-nov-1985,0,0.200,0,10.0,0,1.6,-3.8, 
17-nov-1985,4,0.000,0,9.2,0,4.1,-3.2, 
18-nov-1985,0,0.000,0,8.7,0,5.9,0.9, 
19-nov-1985,0,1.100,0,7.0,0,3.4,-3.8, 
20-nov-1985,0,3.300,0,5.8,0,3.5,-1.2,6.5
21-nov-1985,0,4.600,0,5.8,0,4.0,-0.5,6.4
22-nov-1985,0,3.100,0,6.4,0,3.2,-1.0,6.0
23-nov-1985,0,4.000,0,7.4,0,3.5,0.6,6.2
24-nov-1985,0,1.100,0,8.5,0,4.9,-0.4,6.4
25-nov-1985,0,1.300,0,6.2,0,4.8,-1.5,6.6
26-nov-1985,4,0.000,0,6.4,0,2.4,-3.1,5.7
27-nov-1985,4,0.000,0,4.9,0,1.1,-4.8,5.0
28-nov-1985,0,0.000,0,5.8,1,-2.9,-9.6,3.7
29-nov-1985,0,9.000,0,8.7,1,-0.9,-7.0,4.3
30-nov-1985,0,30.200,0,11.5,0,5.1,0.4,6.2
01-dec-1985,1,9.800, , , , , , 
02-dec-1985,1,6.600, , , , , , 
03-dec-1985,1,2.600, , , , , , 
04-dec-1985,1,0.100, , , , , , 
05-dec-1985,1,0.500, , , , , , 
06-dec-1985,1,8.100, , , , , , 
07-dec-1985,1,0.000, , , , , , 
08-dec-1985,1,0.000, , , , , , 
09-dec-1985,0,6.300, , , , , , 
10-dec-1985,0,2.700, , , , , , 
11-dec-1985,4,0.000, , , , , , 
12-dec-1985,0,3.000, , , , , , 
13-dec-1985,4,0.000, , , , , , 
14-dec-1985,4,0.000, , , , , , 
15-dec-1985,4,0.000, , , , , , 
16-dec-1985,0,2.400, , , , , , 
17-dec-1985,0,1.900, , , , , , 
18-dec-1985,4,0.000, , , , , , 
19-dec-1985,0,0.000, , , , , , 
20-dec-1985,0,13.800, , , , , , 
21-dec-1985,0,3.700, , , , , , 
22-dec-1985,0,0.700, , , , , , 
23-dec-1985,4,0.000, , , , , , 
24-dec-1985,0,12.700, , , , , , 
25-dec-1985,0,0.700, , , , , , 
26-dec-1985,4,0.000, , , , , , 
27-dec-1985,0,0.000, , , , , , 
28-dec-1985,4,0.000, , , , , , 
29-dec-1985,0,2.000, , , , , , 
30-dec-1985,0,6.800, , , , , , 
31-dec-1985,0,0.800, , , , , , 
01-jan-1986,0,20.300,0,7.0,1,-0.4,-7.8,3.2
02-jan-1986,0,1.700,0,5.9,1,-0.4,-4.0,5.1
03-jan-1986,0,2.500,0,5.2,0,1.6,-4.2,4.2
04-jan-1986,0,6.800,0,8.7,1,-1.1,-8.9,3.6
05-jan-1986,4,0.000,0,6.3,1,-0.3,-7.8,2.8
06-jan-1986,0,11.100,0,5.8,1,-0.2,-7.1,2.9
07-jan-1986,0,14.100,0,6.6,0,2.0,-0.6,4.5
08-jan-1986,0,0.500,2,6.9,0,2.2,-3.0,4.5
09-jan-1986,0,10.900,0,11.2,0,1.7,-5.1,4.7
10-jan-1986,0,2.100,0,9.4,0,6.9,2.5,6.9
11-jan-1986,0,0.800,0,6.8,0,3.6,-1.6,4.8
12-jan-1986,4,0.000,0,10.3,0,2.9,-3.4,3.8
13-jan-1986,0,0.500,0,11.7,0,4.2,2.5,6.2
14-jan-1986,4,0.000,0,6.4,0,4.6,-1.0,5.0
15-jan-1986,4,0.000,0,8.3,0,3.7,-2.5,4.0
16-jan-1986,0,7.000,0,6.7,0,1.0,-5.7,3.2
17-jan-1986,0,1.700,0,10.9,0,2.5,-4.6,4.6
18-jan-1986,0,1.700,0,10.5,0,4.7,-0.1,6.3
19-jan-1986,0,2.300,0,8.8,0,7.7,3.4,7.2
20-jan-1986,0,6.800,0,8.9,0,2.6,-4.8,4.8
21-jan-1986,0,4.600,0,9.1,0,1.5,-5.0,5.7
22-jan-1986,0,1.400,0,10.2,0,0.3,-6.4,5.5
23-jan-1986,4,0.000,0,5.9,0,3.1,-3.1,4.2
24-jan-1986,0,0.000,0,5.1,0,0.6,-6.3,3.2
25-jan-1986,0,4.000,0,6.4,1,-1.1,-8.9,2.5
26-jan-1986,0,1.700,0,8.0,0,1.4,-1.9,5.2
27-jan-1986,4,0.000,0,5.7,0,2.2,-3.9,4.9
28-jan-1986,4,0.000,0,6.7,1,-2.0,-7.1,3.1
29-jan-1986,0,7.200,0,5.1,1,-1.0,-8.0,2.5
30-jan-1986,0,3.600,0,5.3,0,0.9,-5.0,3.4
31-jan-1986,0,3.000,0,4.5,0,4.0,-1.0,4.2
01-feb-1986,0,0.200,0,4.1,0,3.4,-1.9,4.1